Lamar, CO

10:39 PM MST on January 20, 2017 (GMT -0700)
Lamar Municipal

Weather History for KLAA - April, 2014

Change the Weather History Date:

Monday, April 7, 2014

  Actual Average Record
Temperature  
Mean Temperature 46 °F 50 °F  
Max Temperature 60 °F 66 °F 93 °F (1978)
Min Temperature 32 °F 33 °F 18 °F (1938)
Degree Days  
Heating Degree Days 19 16  
Month to date heating degree days 132 115  
Since 1 July heating degree days 5101 5124  
Cooling Degree Days 0 0  
Month to date cooling degree days 0 0  
Year to date cooling degree days 0 0  
Moisture  
Dew Point 27 °F    
Average Humidity 52    
Maximum Humidity 76    
Minimum Humidity 27    
Precipitation  
Precipitation 0.00 in 0.03 in 0.56 in (1943)
Month to date precipitation 0.16 0.21  
Year to date precipitation 0.69 1.72  
Sea Level Pressure  
Sea Level Pressure 30.01 in    
Wind  
Wind Speed 17 mph (NNW)    
Max Wind Speed 37 mph    
Max Gust Speed 48 mph    
Visibility 10 miles    
Events      
T = Trace of Precipitation, MM = Missing Value Source: NWS Daily Summary

Daily Weather History Graph

Daily Weather History Graph

Search for Another Location

Airport or City:

Trip Planner

Search our weather history database for the weather conditions in past years. The results will help you decide how hot, cold, wet, or windy it might be!

Date:

Astronomy

Apr. 07, 2014 Rise Set
Actual Time 6:26 AM MDT 7:19 PM MDT
Civil Twilight 6:00 AM MDT 7:46 PM MDT
Nautical Twilight 5:28 AM MDT 8:18 PM MDT
Astronomical Twilight 4:55 AM MDT 8:51 PM MDT
Moon 12:27 PM MDT (4/7) 1:55 AM MDT (4/7)
Length of Visible Light 13h 46m
Length of Day
12h 52m
First Quarter, 54% of the Moon is Illuminated
Apr 7
First Quarter
Apr 15
Full
Apr 22
Last Quarter
Apr 29
New
May 6
First Quarter

Hourly Weather History & Observations

Time (MDT) Temp. Windchill Dew Point Humidity Pressure Visibility Wind Dir Wind Speed Gust Speed Precip Events Conditions
12:53 AM 42.1 °F 35.7 °F 33.1 °F 70% 29.83 in 10.0 mi NW 11.5 mph - N/A   Clear
1:53 AM 39.0 °F 32.3 °F 32.0 °F 76% 29.83 in 10.0 mi NNW 10.4 mph - N/A   Clear
2:53 AM 37.9 °F 30.0 °F 30.9 °F 76% 29.85 in 10.0 mi North 12.7 mph - N/A   Clear
3:53 AM 37.0 °F 29.8 °F 30.9 °F 79% 29.89 in 10.0 mi NNW 10.4 mph - N/A   Clear
4:53 AM 37.0 °F 31.0 °F 30.0 °F 76% 29.91 in 10.0 mi NNW 8.1 mph - N/A   Clear
5:53 AM 37.0 °F 33.3 °F 28.9 °F 73% 29.96 in 10.0 mi WNW 4.6 mph - N/A   Clear
6:53 AM 37.9 °F 30.0 °F 30.0 °F 73% 29.98 in 10.0 mi NNW 12.7 mph - N/A   Clear
7:53 AM 42.1 °F 34.9 °F 32.0 °F 67% 30.00 in 10.0 mi North 13.8 mph - N/A   Clear
8:53 AM 48.0 °F - 33.1 °F 56% 30.00 in 10.0 mi NNW 20.7 mph 26.5 mph N/A   Clear
9:53 AM 50.0 °F - 30.0 °F 46% 30.03 in 10.0 mi North 25.3 mph - N/A   Clear
10:53 AM 52.0 °F - 28.0 °F 40% 30.05 in 10.0 mi North 21.9 mph 31.1 mph N/A   Partly Cloudy
11:53 AM 55.9 °F - 25.0 °F 30% 30.03 in 9.0 mi North 31.1 mph 38.0 mph N/A   Mostly Cloudy
12:53 PM 55.9 °F - 24.1 °F 29% 30.02 in 8.0 mi North 28.8 mph 39.1 mph N/A   Partly Cloudy
1:53 PM 55.9 °F - 23.0 °F 28% 30.01 in 9.0 mi North 32.2 mph 39.1 mph N/A   Mostly Cloudy
2:53 PM 55.9 °F - 25.0 °F 30% 30.02 in 7.0 mi North 27.6 mph 47.2 mph N/A   Scattered Clouds
3:53 PM 55.9 °F - 24.1 °F 29% 30.04 in 10.0 mi North 31.1 mph 40.3 mph N/A   Clear
4:25 PM 54.0 °F - 27.0 °F 35% 30.06 in 5.0 mi North 26.5 mph 35.7 mph N/A   Haze
4:46 PM 55.0 °F - 25.0 °F 31% 30.07 in 10.0 mi North 28.8 mph 35.7 mph N/A   Scattered Clouds
4:53 PM 55.0 °F - 26.1 °F 33% 30.05 in 10.0 mi North 25.3 mph 38.0 mph N/A   Partly Cloudy
5:53 PM 54.0 °F - 24.1 °F 31% 30.05 in 10.0 mi North 27.6 mph 32.2 mph N/A   Clear
6:53 PM 51.1 °F - 25.0 °F 36% 30.07 in 10.0 mi North 18.4 mph 26.5 mph N/A   Clear
7:53 PM 48.0 °F - 19.9 °F 33% 30.09 in 10.0 mi North 15.0 mph - N/A   Clear
8:53 PM 41.0 °F 36.4 °F 19.9 °F 43% 30.12 in 10.0 mi North 6.9 mph - N/A   Clear
9:53 PM 41.0 °F 34.7 °F 21.0 °F 45% 30.12 in 10.0 mi North 10.4 mph - N/A   Clear
10:53 PM 36.0 °F 33.3 °F 21.0 °F 55% 30.15 in 10.0 mi WNW 3.5 mph - N/A   Clear
11:53 PM 39.9 °F - 21.0 °F 47% 30.14 in 10.0 mi Calm Calm - N/A   Clear